ARE4025 SKRG-SKBO

Flight info

Callsign ARE4025
Flight time 0h 27m
Altitude 21000
Route ISVAT2B ISVAT ISVAT4E
Aircraft A320/M-SDE3FGHIRWY/LB1

Departure

Time 2026-04-25 02:04
Airport Jose Maria Córdova International Airport (SKRG)

Arrival

Time 2026-04-25 02:32
Airport El Dorado International Airport (SKBO)
Time Latitude Longitude Altitude Speed Heading
2026-04-25 01:35 6.16980 -75.42767 7018 ft 0 kts 330°
2026-04-25 01:35 6.16964 -75.42800 7020 ft 0 kts 341°
2026-04-25 01:56 6.16949 -75.42795 7019 ft 2 kts 346°
2026-04-25 01:56 6.16933 -75.42792 7018 ft 2 kts
2026-04-25 01:56 6.16916 -75.42795 7019 ft 2 kts 47°
2026-04-25 01:57 6.16908 -75.42809 7022 ft 0 kts 68°
2026-04-25 01:59 6.16908 -75.42808 7022 ft 0 kts 68°
2026-04-25 01:59 6.16910 -75.42803 7022 ft 1 kts 68°
2026-04-25 01:59 6.16917 -75.42785 7018 ft 5 kts 68°
2026-04-25 01:59 6.16936 -75.42741 7018 ft 9 kts 58°
2026-04-25 02:00 6.16985 -75.42687 7018 ft 12 kts 41°
2026-04-25 02:00 6.17040 -75.42612 7019 ft 17 kts 88°
2026-04-25 02:00 6.16947 -75.42541 7014 ft 18 kts 151°
2026-04-25 02:00 6.16809 -75.42483 7002 ft 25 kts 179°
2026-04-25 02:01 6.16610 -75.42483 6988 ft 32 kts 179°
2026-04-25 02:01 6.16367 -75.42478 6982 ft 38 kts 180°
2026-04-25 02:01 6.16090 -75.42478 6977 ft 42 kts 180°
2026-04-25 02:01 6.15792 -75.42474 6975 ft 44 kts 179°
2026-04-25 02:02 6.15531 -75.42474 6976 ft 35 kts 180°
2026-04-25 02:02 6.15284 -75.42473 6977 ft 36 kts 180°
2026-04-25 02:02 6.15045 -75.42472 6978 ft 29 kts 180°
2026-04-25 02:02 6.14908 -75.42465 6977 ft 13 kts 155°
2026-04-25 02:03 6.14887 -75.42377 6975 ft 16 kts 83°
2026-04-25 02:03 6.14951 -75.42310 6977 ft 10 kts 22°
2026-04-25 02:03 6.15025 -75.42298 6979 ft 11 kts
2026-04-25 02:03 6.15118 -75.42300 6980 ft 23 kts
2026-04-25 02:04 6.15542 -75.42302 6982 ft 95 kts 359°
2026-04-25 02:04 6.16409 -75.42311 6984 ft 151 kts 359°
2026-04-25 02:04 6.17594 -75.42327 7050 ft 190 kts 357°
2026-04-25 02:04 6.18906 -75.42338 7797 ft 189 kts
2026-04-25 02:05 6.20243 -75.42288 8438 ft 196 kts
2026-04-25 02:05 6.21639 -75.42045 8637 ft 216 kts 24°
2026-04-25 02:05 6.22678 -75.40985 9052 ft 220 kts 68°
2026-04-25 02:05 6.22735 -75.39471 9489 ft 223 kts 111°
2026-04-25 02:06 6.21956 -75.38128 10033 ft 224 kts 126°
2026-04-25 02:06 6.21343 -75.37287 10361 ft 226 kts 127°
2026-04-25 02:06 6.20389 -75.36030 10860 ft 227 kts 128°
2026-04-25 02:06 6.19434 -75.34761 11333 ft 228 kts 128°
2026-04-25 02:07 6.18483 -75.33474 11801 ft 230 kts 127°
2026-04-25 02:07 6.17535 -75.32166 12259 ft 233 kts 128°
2026-04-25 02:07 6.16398 -75.30945 12458 ft 248 kts 141°
2026-04-25 02:07 6.14904 -75.29942 12554 ft 269 kts 155°
2026-04-25 02:08 6.13091 -75.29211 12719 ft 291 kts 161°
2026-04-25 02:08 6.11116 -75.28468 12866 ft 314 kts 161°
2026-04-25 02:08 6.09028 -75.27671 12988 ft 336 kts 160°
2026-04-25 02:08 6.06782 -75.26809 13194 ft 352 kts 160°
2026-04-25 02:09 6.04471 -75.25922 13685 ft 358 kts 160°
2026-04-25 02:09 6.02125 -75.25021 14228 ft 362 kts 160°
2026-04-25 02:09 5.99756 -75.24110 14739 ft 365 kts 160°
2026-04-25 02:09 5.97373 -75.23193 15235 ft 369 kts 160°
2026-04-25 02:10 5.94967 -75.22268 15734 ft 372 kts 160°
2026-04-25 02:10 5.92540 -75.21336 16218 ft 375 kts 160°
2026-04-25 02:10 5.90084 -75.20393 16727 ft 379 kts 160°
2026-04-25 02:10 5.87607 -75.19443 17221 ft 382 kts 160°
2026-04-25 02:11 5.85113 -75.18487 17743 ft 385 kts 160°
2026-04-25 02:11 5.82594 -75.17524 18256 ft 389 kts 160°
2026-04-25 02:11 5.80056 -75.16557 18714 ft 391 kts 160°
2026-04-25 02:11 5.77497 -75.15579 19139 ft 394 kts 160°
2026-04-25 02:12 5.74917 -75.14588 19580 ft 398 kts 160°
2026-04-25 02:12 5.72356 -75.13606 20023 ft 401 kts 160°
2026-04-25 02:12 5.69733 -75.12606 20463 ft 404 kts 160°
2026-04-25 02:12 5.67110 -75.11584 20904 ft 407 kts 159°
2026-04-25 02:13 5.64473 -75.10513 21159 ft 409 kts 158°
2026-04-25 02:13 5.61854 -75.09423 21217 ft 405 kts 158°
2026-04-25 02:13 5.59261 -75.08332 21226 ft 402 kts 158°
2026-04-25 02:13 5.56672 -75.07245 21241 ft 401 kts 158°
2026-04-25 02:14 5.54099 -75.06170 21199 ft 401 kts 158°
2026-04-25 02:14 5.51526 -75.05100 21197 ft 399 kts 158°
2026-04-25 02:14 5.48955 -75.04036 21201 ft 399 kts 158°
2026-04-25 02:14 5.46381 -75.02976 21201 ft 400 kts 159°
2026-04-25 02:15 5.43805 -75.01920 21216 ft 400 kts 159°
2026-04-25 02:15 5.41223 -75.00862 21218 ft 400 kts 158°
2026-04-25 02:15 5.38647 -74.99805 21071 ft 401 kts 159°
2026-04-25 02:15 5.36109 -74.98756 21043 ft 401 kts 158°
2026-04-25 02:16 5.33549 -74.97677 20836 ft 392 kts 158°
2026-04-25 02:16 5.31081 -74.96623 20641 ft 380 kts 158°
2026-04-25 02:16 5.28665 -74.95589 20233 ft 377 kts 158°
2026-04-25 02:16 5.26256 -74.94556 19801 ft 375 kts 158°
2026-04-25 02:17 5.23872 -74.93534 19410 ft 372 kts 156°
2026-04-25 02:17 5.21642 -74.92245 18960 ft 368 kts 143°
2026-04-25 02:17 5.19783 -74.90514 18264 ft 364 kts 129°
2026-04-25 02:17 5.18374 -74.88410 17492 ft 361 kts 119°
2026-04-25 02:18 5.17155 -74.86237 16889 ft 354 kts 120°
2026-04-25 02:18 5.15966 -74.84132 16650 ft 339 kts 120°
2026-04-25 02:18 5.14791 -74.82083 16560 ft 338 kts 120°
2026-04-25 02:18 5.13691 -74.80029 16595 ft 339 kts 110°
2026-04-25 02:19 5.13202 -74.77731 16622 ft 338 kts 90°
2026-04-25 02:19 5.13517 -74.75413 16636 ft 335 kts 70°
2026-04-25 02:19 5.14586 -74.73363 16643 ft 333 kts 50°
2026-04-25 02:19 5.16215 -74.71703 16659 ft 334 kts 41°
2026-04-25 02:20 5.17907 -74.70118 16667 ft 334 kts 41°
2026-04-25 02:20 5.19599 -74.68520 16678 ft 334 kts 42°
2026-04-25 02:20 5.21205 -74.66845 16685 ft 334 kts 53°
2026-04-25 02:20 5.22246 -74.64760 16711 ft 337 kts 74°
2026-04-25 02:21 5.22493 -74.62436 16727 ft 337 kts 95°
2026-04-25 02:21 5.21901 -74.60176 16748 ft 337 kts 117°
2026-04-25 02:21 5.20557 -74.58274 16767 ft 335 kts 137°
2026-04-25 02:21 5.18659 -74.56931 16782 ft 335 kts 152°
2026-04-25 02:22 5.16623 -74.55783 16795 ft 335 kts 152°
2026-04-25 02:22 5.14582 -74.54643 16804 ft 335 kts 152°
2026-04-25 02:22 5.12544 -74.53506 16832 ft 335 kts 152°
2026-04-25 02:22 5.10508 -74.52369 16349 ft 336 kts 152°
2026-04-25 02:23 5.08472 -74.51228 15752 ft 331 kts 152°
2026-04-25 02:23 5.06525 -74.50134 15617 ft 311 kts 152°
2026-04-25 02:23 5.04692 -74.49102 15462 ft 295 kts 152°
2026-04-25 02:23 5.02927 -74.48109 15086 ft 288 kts 152°
2026-04-25 02:24 5.01189 -74.47135 14646 ft 284 kts 152°
2026-04-25 02:24 4.99488 -74.46181 14189 ft 283 kts 152°
2026-04-25 02:24 4.97780 -74.45222 13723 ft 280 kts 152°
2026-04-25 02:24 4.96092 -74.44274 13232 ft 276 kts 152°
2026-04-25 02:25 4.94419 -74.43334 13086 ft 276 kts 152°
2026-04-25 02:25 4.92740 -74.42390 12967 ft 277 kts 151°
2026-04-25 02:25 4.91168 -74.41279 12877 ft 276 kts 137°
2026-04-25 02:25 4.89901 -74.39836 12899 ft 272 kts 127°
2026-04-25 02:26 4.88810 -74.38340 12906 ft 260 kts 126°
2026-04-25 02:26 4.87745 -74.36899 12921 ft 256 kts 128°
2026-04-25 02:26 4.86684 -74.35495 12946 ft 247 kts 127°
2026-04-25 02:26 4.85666 -74.34150 12836 ft 238 kts 127°
2026-04-25 02:27 4.84669 -74.32833 12523 ft 236 kts 127°
2026-04-25 02:27 4.83684 -74.31529 12225 ft 232 kts 127°
2026-04-25 02:27 4.82713 -74.30245 11941 ft 229 kts 127°
2026-04-25 02:27 4.81756 -74.28980 11656 ft 227 kts 126°
2026-04-25 02:28 4.80812 -74.27732 11380 ft 223 kts 126°
2026-04-25 02:28 4.79875 -74.26493 11111 ft 222 kts 126°
2026-04-25 02:28 4.78946 -74.25265 10840 ft 221 kts 126°
2026-04-25 02:28 4.78031 -74.24054 10580 ft 220 kts 126°
2026-04-25 02:29 4.77126 -74.22859 10320 ft 210 kts 126°
2026-04-25 02:29 4.76266 -74.21722 10058 ft 200 kts 127°
2026-04-25 02:29 4.75444 -74.20635 9792 ft 191 kts 127°
2026-04-25 02:29 4.74673 -74.19615 9557 ft 176 kts 127°
2026-04-25 02:30 4.73949 -74.18658 9291 ft 170 kts 127°
2026-04-25 02:30 4.73240 -74.17721 9048 ft 168 kts 127°
2026-04-25 02:30 4.72532 -74.16785 8811 ft 168 kts 127°
2026-04-25 02:30 4.71826 -74.15853 8570 ft 167 kts 127°
2026-04-25 02:31 4.71119 -74.14924 8408 ft 167 kts 127°
2026-04-25 02:31 4.70472 -74.14061 8370 ft 138 kts 127°
2026-04-25 02:31 4.69988 -74.13424 8372 ft 88 kts 127°
2026-04-25 02:31 4.69700 -74.13044 8369 ft 61 kts 127°
2026-04-25 02:32 4.69450 -74.12711 8369 ft 57 kts 127°
2026-04-25 02:32 4.69286 -74.12514 8371 ft 15 kts 168°
2026-04-25 02:32 4.69227 -74.12579 8371 ft 14 kts 256°
2026-04-25 02:32 4.69217 -74.12615 8372 ft 0 kts 255°
2026-04-25 02:33 4.69216 -74.12619 8372 ft 2 kts 255°
2026-04-25 02:33 4.69210 -74.12643 8372 ft 5 kts 256°
2026-04-25 02:34 4.69201 -74.12691 8372 ft 8 kts 274°
2026-04-25 02:34 4.69234 -74.12754 8372 ft 12 kts 308°
2026-04-25 02:34 4.69295 -74.12832 8372 ft 16 kts 306°
2026-04-25 02:34 4.69369 -74.12930 8372 ft 20 kts 308°
2026-04-25 02:35 4.69460 -74.13048 8372 ft 23 kts 306°
2026-04-25 02:35 4.69562 -74.13185 8373 ft 26 kts 307°
2026-04-25 02:35 4.69669 -74.13327 8373 ft 24 kts 309°
2026-04-25 02:35 4.69754 -74.13440 8373 ft 15 kts 306°
2026-04-25 02:36 4.69819 -74.13527 8373 ft 16 kts 307°
2026-04-25 02:36 4.69829 -74.13596 8373 ft 11 kts 226°
2026-04-25 02:36 4.69758 -74.13650 8373 ft 14 kts 201°
2026-04-25 02:36 4.69700 -74.13672 8373 ft 11 kts 222°
2026-04-25 02:37 4.69668 -74.13702 8373 ft 0 kts 224°